Location: Unspecified
(0.0000°N, 0.0000°E)
Time: 17:07:25
(UTC+02:00)

JASON 3 - Pass Details

Date: 03 October 2021
Orbit: 1332 x 1343 km, 66.0° (Epoch: 27 October)

Event Time Altitude Azimuth Distance (km) Brightness Sun altitude
Rises 06:08:41 0° 160° (SSE) 4,344 ? -25.0°
Reaches altitude 10° 06:14:26 10° 129° (SE) 3,371 ? -23.6°
Maximum altitude 06:16:43 11° 112° (ESE) 3,270 ? -23.0°
Drops below altitude 10° 06:18:59 10° 95° (E) 3,371 ? -22.5°
Sets 06:24:39 0° 64° (ENE) 4,343 ? -21.0°
